Вернуться в каталог

ARIANE 3 DEB

АктивенGTO
NORAD 33536·DEBRIS·🇫🇷 France

Запущен Sep 8, 1988 с Guiana Space Centre

Loading…

TLE

УстаревшееSource: Space-Track

Эпоха: Sep 14, 2026, 03:12 UTC

1 33536U 88081L   26257.13399383 -.00000065  00000-0  00000-0 0  9998
2 33536   6.1905 255.8703 6974507 196.7802 302.7128  2.15745884175475

Отслеживайте ARIANE 3 DEB в реальном времени с AllMySat

Download on the App Store